TimeEDT,TemperatureF,Dew PointF,Humidity,Sea Level PressureIn,VisibilityMPH,Wind Direction,Wind SpeedMPH,Gust SpeedMPH,PrecipitationIn,Events,Conditions,WindDirDegrees,DateUTC
12:53 AM,52.0,48.9,89,30.10,7.0,SSE,6.9,-,N/A,,Overcast,150,2013-04-19 04:53:00
1:15 AM,51.8,50.0,94,30.09,5.0,SSE,5.8,-,N/A,,Overcast,150,2013-04-19 05:15:00
1:32 AM,51.8,50.0,94,30.08,1.8,SSE,5.8,-,N/A,,Overcast,150,2013-04-19 05:32:00
1:53 AM,52.0,51.1,97,30.07,1.0,SSE,3.5,-,N/A,,Overcast,160,2013-04-19 05:53:00
2:11 AM,51.8,51.8,100,30.07,0.8,SSE,4.6,-,N/A,,Mist,150,2013-04-19 06:11:00
2:53 AM,53.1,52.0,96,30.06,0.5,South,3.5,-,N/A,Fog,Fog,190,2013-04-19 06:53:00
3:53 AM,53.1,52.0,96,30.02,0.5,SSE,3.5,-,N/A,Fog,Fog,150,2013-04-19 07:53:00
4:26 AM,53.6,51.8,94,29.99,1.2,SSE,5.8,-,N/A,,Overcast,160,2013-04-19 08:26:00
4:37 AM,53.6,53.6,100,30.01,3.0,Calm,Calm,-,N/A,,Overcast,0,2013-04-19 08:37:00
4:50 AM,53.6,53.6,100,30.01,2.0,Variable,4.6,-,N/A,,Overcast,0,2013-04-19 08:50:00
4:53 AM,54.0,53.1,97,30.00,1.8,South,4.6,-,N/A,,Overcast,170,2013-04-19 08:53:00
5:25 AM,55.4,53.6,94,30.00,2.5,South,4.6,-,N/A,,Overcast,170,2013-04-19 09:25:00
5:33 AM,55.4,53.6,94,30.00,4.0,South,4.6,-,N/A,,Overcast,170,2013-04-19 09:33:00
5:53 AM,55.9,54.0,93,29.99,5.0,SSE,5.8,-,N/A,,Overcast,160,2013-04-19 09:53:00
6:53 AM,57.0,55.0,93,29.98,3.0,South,8.1,-,N/A,,Overcast,180,2013-04-19 10:53:00
7:30 AM,59.0,55.4,88,29.99,7.0,South,5.8,-,N/A,,Overcast,190,2013-04-19 11:30:00
7:53 AM,60.1,57.0,90,29.99,9.0,South,10.4,16.1,N/A,,Overcast,180,2013-04-19 11:53:00
8:53 AM,61.0,57.0,87,29.96,10.0,SSW,10.4,18.4,N/A,,Overcast,200,2013-04-19 12:53:00
9:53 AM,61.0,57.0,87,29.96,10.0,South,9.2,18.4,N/A,,Overcast,190,2013-04-19 13:53:00
10:37 AM,62.6,57.2,82,29.94,10.0,South,9.2,-,N/A,,Overcast,190,2013-04-19 14:37:00
10:53 AM,64.0,57.9,80,29.92,10.0,South,8.1,18.4,N/A,,Overcast,170,2013-04-19 14:53:00
11:08 AM,64.4,57.2,77,29.91,10.0,South,11.5,17.3,N/A,,Overcast,170,2013-04-19 15:08:00
11:53 AM,68.0,57.9,70,29.89,10.0,SSW,15.0,21.9,N/A,,Mostly Cloudy,200,2013-04-19 15:53:00
12:11 PM,69.8,59.0,68,29.88,10.0,South,10.4,24.2,N/A,,Scattered Clouds,170,2013-04-19 16:11:00
12:53 PM,70.0,57.9,65,29.85,10.0,South,15.0,28.8,N/A,,Mostly Cloudy,180,2013-04-19 16:53:00
1:53 PM,71.1,59.0,66,29.82,10.0,South,17.3,29.9,N/A,,Mostly Cloudy,190,2013-04-19 17:53:00
2:38 PM,69.8,59.0,68,29.82,10.0,South,12.7,25.3,N/A,,Overcast,180,2013-04-19 18:38:00
2:53 PM,69.1,60.1,73,29.80,10.0,South,11.5,19.6,N/A,,Overcast,190,2013-04-19 18:53:00
3:48 PM,68.0,59.0,73,29.77,10.0,South,12.7,23.0,N/A,,Overcast,180,2013-04-19 19:48:00
3:53 PM,68.0,59.0,73,29.76,10.0,South,12.7,23.0,N/A,,Mostly Cloudy,170,2013-04-19 19:53:00
4:53 PM,66.0,59.0,78,29.73,10.0,South,12.7,25.3,N/A,,Mostly Cloudy,190,2013-04-19 20:53:00
5:53 PM,63.0,57.9,84,29.70,10.0,SSE,11.5,18.4,N/A,,Mostly Cloudy,160,2013-04-19 21:53:00
6:53 PM,64.0,57.9,80,29.70,10.0,South,11.5,-,N/A,,Partly Cloudy,170,2013-04-19 22:53:00
7:53 PM,64.9,59.0,81,29.68,10.0,South,16.1,25.3,N/A,,Overcast,170,2013-04-19 23:53:00
8:53 PM,64.0,59.0,84,29.68,10.0,SSW,12.7,23.0,N/A,,Overcast,200,2013-04-20 00:53:00
9:07 PM,64.4,59.0,83,29.68,10.0,South,16.1,24.2,N/A,,Overcast,180,2013-04-20 01:07:00
9:50 PM,64.4,59.0,83,29.68,10.0,South,12.7,26.5,N/A,,Mostly Cloudy,180,2013-04-20 01:50:00
9:53 PM,64.0,59.0,84,29.67,10.0,SSW,11.5,26.5,N/A,,Mostly Cloudy,200,2013-04-20 01:53:00
10:03 PM,64.4,59.0,83,29.68,10.0,SSW,11.5,25.3,N/A,,Mostly Cloudy,200,2013-04-20 02:03:00
10:21 PM,64.4,59.0,83,29.67,10.0,South,10.4,20.7,N/A,,Overcast,190,2013-04-20 02:21:00
10:32 PM,64.4,60.8,88,29.67,10.0,SSW,12.7,21.9,0.00,Rain,Light Rain,200,2013-04-20 02:32:00
10:37 PM,64.4,60.8,88,29.68,10.0,South,12.7,23.0,0.00,,Overcast,190,2013-04-20 02:37:00
10:43 PM,64.4,59.0,83,29.68,10.0,South,13.8,23.0,0.00,,Overcast,190,2013-04-20 02:43:00
10:53 PM,64.0,59.0,84,29.67,10.0,South,9.2,26.5,0.00,,Overcast,190,2013-04-20 02:53:00
11:05 PM,64.4,60.8,88,29.70,5.0,WSW,13.8,19.6,0.01,Rain,Rain,250,2013-04-20 03:05:00
11:51 PM,62.6,60.8,94,29.67,6.0,Calm,Calm,-,0.05,Rain,Light Rain,0,2013-04-20 03:51:00
11:53 PM,63.0,60.1,90,29.66,6.0,Calm,Calm,-,0.05,Rain,Light Rain,0,2013-04-20 03:53:00